Johnstown, PA

8:59 PM EST on January 16, 2017 (GMT -0500)
Johnstown-Cambria County

Weather History for KJST - January, 2014

Change the Weather History Date:

Monday, January 27, 2014

  Actual Average Record
Temperature  
Mean Temperature 20 °F 25 °F  
Max Temperature 40 °F 32 °F 75 °F (1916)
Min Temperature -1 °F 18 °F -10 °F (1907)
Degree Days  
Heating Degree Days 45 40  
Month to date heating degree days 1205 1073  
Since 1 July heating degree days 3899 3657  
Cooling Degree Days 0 0  
Month to date cooling degree days 0 0  
Year to date cooling degree days 0 0  
Moisture  
Dew Point 7 °F    
Average Humidity 75    
Maximum Humidity 92    
Minimum Humidity 58    
Precipitation  
Precipitation 0.04 in 0.08 in 1.04 in (1952)
Month to date precipitation 0.88 2.54  
Year to date precipitation 0.88 2.54  
Sea Level Pressure  
Sea Level Pressure 29.80 in    
Wind  
Wind Speed 18 mph (West)    
Max Wind Speed 36 mph    
Max Gust Speed 48 mph    
Visibility 5 miles    
Events Fog , Rain , Snow    
T = Trace of Precipitation, MM = Missing Value Source: NWS Daily Summary

Daily Weather History Graph

Daily Weather History Graph

Search for Another Location

Airport or City:

Trip Planner

Search our weather history database for the weather conditions in past years. The results will help you decide how hot, cold, wet, or windy it might be!

Date:

Astronomy

Jan. 27, 2014 Rise Set
Actual Time 7:28 AM EST 5:27 PM EST
Civil Twilight 6:59 AM EST 5:56 PM EST
Nautical Twilight 6:26 AM EST 6:29 PM EST
Astronomical Twilight 5:54 AM EST 7:01 PM EST
Moon 4:08 AM EST (1/27) 2:11 PM EST (1/27)
Length of Visible Light 10h 57m
Length of Day
9h 58m
Waning Crescent, 15% of the Moon is Illuminated
Jan 27
Waning Crescent
Jan 30
New
Feb 6
First Quarter
Feb 14
Full
Feb 22
Last Quarter

Hourly Weather History & Observations

Time (EST) Temp. Windchill Dew Point Humidity Pressure Visibility Wind Dir Wind Speed Gust Speed Precip Events Conditions
12:54 AM 34.0 °F 26.6 °F 21.9 °F 61% 29.60 in 10.0 mi SSW 9.2 mph - N/A   Overcast
1:54 AM 35.1 °F 26.9 °F 23.0 °F 61% 29.55 in 10.0 mi South 11.5 mph - N/A   Overcast
2:54 AM 37.0 °F 28.1 °F 25.0 °F 62% 29.53 in 10.0 mi SSW 15.0 mph 24.2 mph N/A   Overcast
3:54 AM 39.0 °F 29.9 °F 28.0 °F 65% 29.52 in 10.0 mi SSW 17.3 mph 24.2 mph N/A   Overcast
4:54 AM 39.0 °F 28.0 °F 28.9 °F 67% 29.51 in 10.0 mi WSW 25.3 mph 35.7 mph 0.00 in   Overcast
5:19 AM 37.9 °F 26.3 °F 30.0 °F 73% 29.46 in 10.0 mi WSW 26.5 mph 47.2 mph 0.00 in Rain Light Rain
5:54 AM 37.0 °F 26.2 °F 30.0 °F 76% 29.52 in 10.0 mi WSW 21.9 mph 38.0 mph 0.00 in Rain Light Rain
6:43 AM 34.0 °F 21.3 °F 30.9 °F 89% 29.51 in 5.0 mi WNW 25.3 mph 34.5 mph 0.00 in Snow Light Snow
6:48 AM 30.2 °F 15.2 °F 28.4 °F 93% 29.53 in 1.8 mi WNW 29.9 mph 41.4 mph 0.00 in Snow Light Snow
6:54 AM 28.0 °F 12.5 °F 26.1 °F 92% 29.62 in 1.0 mi WNW 28.8 mph 41.4 mph 0.00 in Snow Light Snow
7:01 AM 27.0 °F 13.5 °F 25.0 °F 92% 29.56 in 0.8 mi West 19.6 mph 39.1 mph 0.00 in Snow Light Snow
7:10 AM 26.1 °F 10.1 °F 24.1 °F 92% 29.57 in 0.5 mi West 27.6 mph 34.5 mph 0.00 in Fog , Snow Snow
7:37 AM 21.9 °F 4.5 °F 19.9 °F 92% 29.60 in 0.2 mi West 27.6 mph 43.7 mph 0.01 in Fog , Snow Heavy Snow
7:54 AM 21.9 °F 5.8 °F 19.0 °F 89% 29.69 in 0.2 mi West 23.0 mph 31.1 mph 0.01 in Fog , Snow Heavy Snow
8:20 AM 19.9 °F 0.7 °F 16.0 °F 85% 29.63 in 0.2 mi West 32.2 mph 44.9 mph 0.01 in Fog , Snow Snow
8:54 AM 19.0 °F 1.0 °F 16.0 °F 88% 29.75 in 0.2 mi WNW 26.5 mph 35.7 mph 0.01 in Fog , Snow Heavy Snow
9:54 AM 15.1 °F -2.5 °F 9.0 °F 77% 29.83 in 0.5 mi WNW 20.7 mph 41.4 mph 0.01 in Snow Snow
10:03 AM 15.1 °F -1.1 °F 9.0 °F 77% 29.74 in 0.8 mi West 17.3 mph 32.2 mph 0.00 in Snow Light Snow
10:11 AM 14.0 °F -3.0 °F 10.0 °F 84% 29.75 in 0.5 mi WNW 18.4 mph - 0.00 in Fog , Snow Snow
10:18 AM 12.9 °F -3.9 °F 10.0 °F 88% 29.76 in 0.2 mi NW 17.3 mph 27.6 mph 0.00 in Fog , Snow Heavy Snow
10:36 AM 10.9 °F -6.5 °F 6.1 °F 81% 29.78 in 0.5 mi WNW 17.3 mph 31.1 mph 0.00 in Snow Snow
10:54 AM 10.9 °F -6.5 °F 6.1 °F 81% 29.89 in 0.8 mi WNW 17.3 mph 26.5 mph 0.00 in Snow Light Snow
11:00 AM 10.9 °F -4.7 °F 5.0 °F 77% 29.80 in 1.0 mi West 13.8 mph 26.5 mph 0.00 in Snow Light Snow
11:08 AM 10.9 °F -4.7 °F 5.0 °F 77% 29.81 in 3.0 mi WNW 13.8 mph 23.0 mph 0.00 in Snow Light Snow
11:20 AM 10.9 °F -8.8 °F 1.9 °F 67% 29.80 in 1.8 mi West 23.0 mph 35.7 mph 0.00 in Snow Blowing Snow
11:40 AM 10.9 °F -6.5 °F 1.0 °F 64% 29.81 in 2.0 mi West 17.3 mph 26.5 mph 0.00 in   Overcast
11:44 AM 10.9 °F -5.9 °F 1.0 °F 64% 29.81 in 3.0 mi West 16.1 mph - 0.00 in   Overcast
11:54 AM 10.9 °F -7.5 °F 1.0 °F 64% 29.91 in 2.5 mi WNW 19.6 mph 27.6 mph 0.00 in Snow Blowing Snow
12:25 PM 10.9 °F -8.8 °F 1.0 °F 64% 29.80 in 2.5 mi WNW 23.0 mph 31.1 mph 0.00 in   Overcast
12:31 PM 10.9 °F -7.5 °F 1.0 °F 64% 29.80 in 1.8 mi West 19.6 mph 31.1 mph 0.00 in Snow Blowing Snow
12:37 PM 10.9 °F -7.9 °F 1.0 °F 64% 29.80 in 2.0 mi WNW 20.7 mph 28.8 mph 0.00 in Snow Blowing Snow
12:54 PM 12.0 °F -5.1 °F 1.0 °F 61% 29.90 in 3.0 mi West 17.3 mph 27.6 mph 0.00 in Snow Blowing Snow
1:16 PM 12.0 °F -6.0 °F -0.0 °F 59% 29.80 in 2.0 mi West 19.6 mph 33.4 mph 0.00 in Snow Blowing Snow
1:46 PM 12.0 °F -4.5 °F -2.0 °F 53% 29.80 in 5.0 mi West 16.1 mph 29.9 mph 0.01 in Snow Blowing Snow
1:54 PM 10.9 °F -8.3 °F -2.0 °F 56% 29.90 in 5.0 mi West 21.9 mph 32.2 mph 0.01 in Snow Blowing Snow
2:11 PM 12.0 °F -6.5 °F -2.0 °F 53% 29.81 in 4.0 mi WNW 20.7 mph 29.9 mph N/A Snow Blowing Snow
2:54 PM 10.9 °F -7.9 °F -0.9 °F 59% 29.91 in 5.0 mi West 20.7 mph 27.6 mph 0.00 in   Haze
3:54 PM 10.9 °F -7.5 °F -2.9 °F 54% 29.92 in 7.0 mi West 19.6 mph 28.8 mph N/A   Partly Cloudy
4:54 PM 9.0 °F -7.9 °F -2.9 °F 59% 29.96 in 6.0 mi West 15.0 mph 23.0 mph N/A   Haze
5:54 PM 7.0 °F -11.0 °F -4.0 °F 61% 30.00 in 10.0 mi West 16.1 mph 25.3 mph N/A   Partly Cloudy
6:54 PM 6.1 °F -10.9 °F -6.0 °F 58% 30.04 in 10.0 mi West 13.8 mph 23.0 mph N/A   Partly Cloudy
7:54 PM 5.0 °F -12.3 °F -6.0 °F 61% 30.08 in 10.0 mi West 13.8 mph 21.9 mph N/A   Clear
8:54 PM 3.9 °F -13.0 °F -6.0 °F 64% 30.10 in 10.0 mi West 12.7 mph 21.9 mph N/A   Partly Cloudy
9:21 PM 3.0 °F -14.8 °F -6.0 °F 66% 29.97 in 10.0 mi West 13.8 mph 33.4 mph N/A   Mostly Cloudy
9:32 PM 3.0 °F -14.8 °F -6.0 °F 66% 29.98 in 10.0 mi West 13.8 mph 25.3 mph N/A   Scattered Clouds
9:41 PM 3.0 °F -15.5 °F -6.0 °F 66% 29.98 in 10.0 mi West 15.0 mph 26.5 mph N/A   Mostly Cloudy
9:54 PM 3.0 °F -15.5 °F -6.0 °F 66% 30.13 in 9.0 mi West 15.0 mph 24.2 mph N/A   Mostly Cloudy
10:54 PM 1.9 °F -16.9 °F -5.1 °F 72% 30.15 in 3.0 mi West 15.0 mph 26.5 mph 0.00 in Snow Light Snow
11:30 PM -0.0 °F -22.4 °F -9.0 °F 66% 30.01 in 5.0 mi West 20.7 mph 36.8 mph 0.00 in Snow Blowing Snow
11:43 PM -0.0 °F -23.3 °F -9.9 °F 63% 30.02 in 5.0 mi West 23.0 mph 33.4 mph 0.00 in Snow Blowing Snow
11:54 PM -0.0 °F -18.7 °F -11.0 °F 60% 30.18 in 7.0 mi West 13.8 mph 29.9 mph 0.00 in   Partly Cloudy